Date String (YYYY-MM-DD hh:mm:ss) UTC,Instrument flags,Ambient pressure (hPa),Sample flow (lpm),Bypass flow (lpm),Sample temperature (°C),Ambient temperature (°C),ASC tube jacket temperature (°C),LED temperature (°C),Box temperature (°C),Sample RH (%),Span deviation,Mass concentration (μg/m³),Mass concentration (μg/m³),Mass concentration (μg/m³)
DateTimeUTC,F1_M11,P_M11,Q1_M11,Q2_M11,T1_M11,T2_M11,T3_M11,T4_M11,T5_M11,U1_M11,ZSPAN_M11,X2_M11,X0_M11,X1_M11
2021-09-21 07:00:00,,0837.8,4.99,0.00,30.0,29.1,00.0,39.1,31.7,18.8,0000.0,0002.05,0004.05,0001.76
2021-09-21 07:01:00,,0837.8,5.00,0.00,30.0,29.1,00.0,39.1,31.7,18.8,0000.0,0002.09,0004.53,0001.77
2021-09-21 07:02:00,,0837.8,5.01,0.00,30.0,29.2,00.0,39.1,31.8,18.8,0000.0,0002.10,0004.83,0001.79
2021-09-21 07:03:00,,0837.8,5.00,0.00,30.0,29.2,00.0,39.1,31.7,18.6,0000.0,0002.09,0004.88,0001.79
2021-09-21 07:04:00,,0837.8,4.98,0.00,30.0,29.2,00.0,39.1,31.7,18.5,0000.0,0002.13,0004.92,0001.82
2021-09-21 07:05:00,,0837.9,5.01,0.00,30.0,29.2,00.0,39.1,31.7,18.4,0000.0,0002.19,0005.14,0001.85
2021-09-21 07:06:00,,0837.8,4.99,0.00,30.0,29.2,00.0,39.1,31.8,18.2,0000.0,0002.23,0005.27,0001.87
2021-09-21 07:07:00,,0837.8,5.01,0.00,30.0,29.2,00.0,39.1,31.7,18.1,0000.0,0002.30,0005.51,0001.91
2021-09-21 07:08:00,,0837.8,4.99,0.00,30.0,29.2,00.0,39.1,31.7,18.2,0000.0,0002.32,0004.68,0001.93
2021-09-21 07:09:00,,0837.8,5.00,0.00,30.0,29.2,00.0,39.1,31.7,18.5,0000.0,0002.35,0004.82,0001.95
2021-09-21 07:10:00,,0837.8,4.99,0.00,30.0,29.2,00.0,39.1,31.7,18.5,0000.0,0002.36,0004.98,0001.97
2021-09-21 07:11:00,,0837.8,4.99,0.00,30.0,29.2,00.0,39.1,31.8,18.4,0000.0,0002.36,0004.73,0001.98
2021-09-21 07:12:00,,0837.8,5.00,0.00,30.0,29.2,00.0,39.1,31.8,18.4,0000.0,0002.35,0004.51,0002.00
2021-09-21 07:13:00,,0837.8,5.00,0.00,30.0,29.2,00.0,39.1,31.8,18.6,0000.0,0002.39,0004.28,0002.02
2021-09-21 07:14:00,,0837.8,5.01,0.00,30.0,29.2,00.0,39.1,31.8,18.5,0000.0,0002.43,0004.37,0002.03
2021-09-21 07:15:00,,0837.8,5.00,0.00,30.0,29.2,00.0,39.1,31.7,18.6,0000.0,0002.44,0004.49,0002.04
2021-09-21 07:16:00,,0837.8,5.01,0.00,30.1,29.2,00.0,39.1,31.8,18.4,0000.0,0002.42,0004.24,0002.05
2021-09-21 07:17:00,,0837.8,5.00,0.00,30.1,29.2,00.0,39.1,31.8,18.5,0000.0,0002.44,0004.29,0002.04
2021-09-21 07:18:00,,0837.8,4.99,0.00,30.1,29.2,00.0,39.1,31.8,18.7,0000.0,0002.42,0004.13,0002.04
2021-09-21 07:19:00,,0837.8,5.01,0.00,30.1,29.2,00.0,39.1,31.8,18.8,0000.0,0002.43,0004.45,0002.04
2021-09-21 07:20:00,,0837.9,5.00,0.00,30.1,29.2,00.0,39.2,31.8,18.7,0000.0,0002.44,0005.65,0002.05
2021-09-21 07:21:00,,0837.9,5.00,0.00,30.1,29.2,00.0,39.2,31.8,18.6,0000.0,0002.47,0005.47,0002.05
2021-09-21 07:22:00,,0838.0,5.00,0.00,30.1,29.2,00.0,39.2,31.8,18.4,0000.0,0002.48,0005.65,0002.05
2021-09-21 07:23:00,,0838.0,5.00,0.00,30.1,29.2,00.0,39.2,31.8,18.4,0000.0,0002.48,0005.47,0002.05
2021-09-21 07:24:00,,0838.0,4.99,0.00,30.1,29.2,00.0,39.2,31.8,18.6,0000.0,0002.48,0005.49,0002.05
2021-09-21 07:25:00,,0838.0,5.01,0.00,30.1,29.2,00.0,39.2,31.8,18.8,0000.0,0002.50,0005.55,0002.06
2021-09-21 07:26:00,,0838.0,4.99,0.00,30.1,29.3,00.0,39.2,31.9,19.1,0000.0,0002.51,0005.50,0002.08
2021-09-21 07:27:00,,0838.0,4.99,0.00,30.1,29.3,00.0,39.2,31.8,19.0,0000.0,0002.59,0005.94,0002.11
2021-09-21 07:28:00,,0838.0,5.02,0.00,30.1,29.3,00.0,39.2,31.8,19.0,0000.0,0002.64,0006.20,0002.15
2021-09-21 07:29:00,,0838.0,5.00,0.00,30.1,29.2,00.0,39.2,31.9,19.0,0000.0,0002.69,0006.39,0002.17
2021-09-21 07:30:00,,0838.0,4.99,0.00,30.1,29.2,00.0,39.2,31.8,19.0,0000.0,0002.81,0006.60,0002.21
2021-09-21 07:31:00,,0838.0,5.00,0.00,30.1,29.2,00.0,39.2,31.9,19.0,0000.0,0002.93,0005.30,0002.24
2021-09-21 07:32:00,,0838.0,5.00,0.00,30.1,29.2,00.0,39.2,31.9,19.1,0000.0,0003.01,0005.50,0002.29
2021-09-21 07:33:00,,0838.0,4.98,0.00,30.2,29.2,00.0,39.2,31.9,19.2,0000.0,0003.05,0005.47,0002.32
2021-09-21 07:34:00,,0838.0,5.01,0.00,30.2,29.2,00.0,39.2,31.9,19.2,0000.0,0003.15,0005.71,0002.37
2021-09-21 07:35:00,,0838.0,5.01,0.00,30.2,29.2,00.0,39.2,31.9,19.2,0000.0,0003.18,0005.89,0002.40
2021-09-21 07:36:00,,0838.0,4.99,0.00,30.2,29.2,00.0,39.2,31.9,19.1,0000.0,0003.18,0005.87,0002.41
2021-09-21 07:37:00,,0838.0,5.00,0.00,30.2,29.2,00.0,39.3,31.9,19.1,0000.0,0003.22,0005.95,0002.43
2021-09-21 07:38:00,,0838.0,5.01,0.00,30.2,29.2,00.0,39.3,31.9,19.2,0000.0,0003.24,0006.63,0002.44
2021-09-21 07:39:00,,0838.0,5.00,0.00,30.2,29.2,00.0,39.3,31.9,19.2,0000.0,0003.25,0006.99,0002.43
2021-09-21 07:40:00,,0838.0,5.00,0.00,30.2,29.2,00.0,39.3,31.9,19.2,0000.0,0003.25,0006.86,0002.44
2021-09-21 07:41:00,,0838.0,5.01,0.00,30.2,29.2,00.0,39.3,31.9,19.3,0000.0,0003.25,0006.96,0002.45
2021-09-21 07:42:00,,0838.0,5.00,0.00,30.2,29.2,00.0,39.3,31.9,19.4,0000.0,0003.19,0006.88,0002.44
2021-09-21 07:43:00,,0838.0,5.00,0.00,30.2,29.2,00.0,39.3,31.9,19.4,0000.0,0003.18,0007.03,0002.44
2021-09-21 07:44:00,,0838.0,4.98,0.00,30.2,29.2,00.0,39.3,31.9,19.4,0000.0,0003.20,0007.13,0002.45
2021-09-21 07:45:00,,0838.0,4.99,0.00,30.2,29.3,00.0,39.3,31.9,19.4,0000.0,0003.19,0007.07,0002.46
2021-09-21 07:46:00,,0838.0,5.02,0.00,30.2,29.2,00.0,39.3,31.9,19.4,0000.0,0003.19,0007.05,0002.49
2021-09-21 07:47:00,,0838.0,5.00,0.00,30.2,29.2,00.0,39.3,31.9,19.2,0000.0,0003.21,0007.12,0002.51
2021-09-21 07:48:00,,0838.0,4.99,0.00,30.2,29.2,00.0,39.3,31.9,19.2,0000.0,0003.19,0007.02,0002.50
2021-09-21 07:49:00,,0838.0,4.99,0.00,30.2,29.3,00.0,39.3,31.9,19.3,0000.0,0003.18,0006.33,0002.51
2021-09-21 07:50:00,,0838.0,5.00,0.00,30.2,29.2,00.0,39.3,31.9,19.4,0000.0,0003.17,0005.53,0002.51
2021-09-21 07:51:00,,0838.0,4.99,0.00,30.2,29.2,00.0,39.3,31.9,19.5,0000.0,0003.18,0005.60,0002.49
2021-09-21 07:52:00,,0838.0,5.01,0.00,30.2,29.2,00.0,39.3,31.9,19.5,0000.0,0003.12,0005.46,0002.45
2021-09-21 07:53:00,,0838.0,4.98,0.00,30.2,29.2,00.0,39.3,31.9,19.5,0000.0,0003.09,0005.19,0002.43
2021-09-21 07:54:00,,0838.0,5.01,0.00,30.2,29.2,00.0,39.3,31.9,19.6,0000.0,0003.06,0004.91,0002.40
2021-09-21 07:55:00,,0838.0,4.99,0.00,30.1,29.2,00.0,39.3,31.9,19.7,0000.0,0003.00,0005.34,0002.38
2021-09-21 07:56:00,,0838.0,4.99,0.00,30.1,29.2,00.0,39.3,31.8,19.7,0000.0,0002.95,0005.23,0002.33
2021-09-21 07:57:00,,0838.0,5.01,0.00,30.1,29.1,00.0,39.3,31.8,19.8,0000.0,0002.92,0005.12,0002.29
2021-09-21 07:58:00,,0838.0,5.00,0.00,30.1,29.1,00.0,39.2,31.7,19.8,0000.0,0002.86,0004.95,0002.26
2021-09-21 07:59:00,,0838.0,4.99,0.00,30.0,29.1,00.0,39.2,31.7,19.8,0000.0,0002.84,0005.33,0002.23
